This is the latest recevied weather packets stored in our database for station/object OK1KKY-18. If no packets are shown the sender has not sent any weather packets the latest 10 day(s).
| Time | Temp. | Humidity | Pressure | Rain* | Wind** | Luminosity | Snow |
|---|---|---|---|---|---|---|---|
| 1788154653 | 13.89° C | 89% | 1016 hPa | - | - | - | - |
| 1788154053 | 13.33° C | 89% | 1016 hPa | - | - | - | - |
| 1788153453 | 13.33° C | 90% | 1016 hPa | - | - | - | - |
| 1788152853 | 13.33° C | 90% | 1016 hPa | - | - | - | - |
| 1788152253 | 12.78° C | 92% | 1016 hPa | - | - | - | - |
| 1788151653 | 12.78° C | 92% | 1016 hPa | - | - | - | - |
| 1788151053 | 12.22° C | 95% | 1016 hPa | - | - | - | - |
| 1788150453 | 12.22° C | 96% | 1016 hPa | - | - | - | - |
| 1788149853 | 12.22° C | 95% | 1016 hPa | - | - | - | - |
| 1788149253 | 12.22° C | 97% | 1016.2 hPa | - | - | - | - |
| 1788148653 | 12.22° C | 96% | 1016.4 hPa | - | - | - | - |
| 1788148053 | 12.22° C | 94% | 1016.3 hPa | - | - | - | - |
| 1788147453 | 12.22° C | 94% | 1016.4 hPa | - | - | - | - |
| 1788146854 | 12.78° C | 93% | 1016.3 hPa | - | - | - | - |
| 1788146253 | 12.78° C | 92% | 1016.4 hPa | - | - | - | - |
| 1788145653 | 12.78° C | 92% | 1016.4 hPa | - | - | - | - |
| 1788145053 | 12.78° C | 93% | 1016.4 hPa | - | - | - | - |
| 1788144453 | 12.78° C | 93% | 1016.7 hPa | - | - | - | - |
| 1788143853 | 12.78° C | 92% | 1016.5 hPa | - | - | - | - |
| 1788143253 | 12.78° C | 91% | 1016.5 hPa | - | - | - | - |
| 1788142653 | 12.78° C | 92% | 1016.6 hPa | - | - | - | - |
| 1788142054 | 12.78° C | 93% | 1016.7 hPa | - | - | - | - |
| 1788141454 | 12.78° C | 93% | 1016.8 hPa | - | - | - | - |
| 1788140854 | 12.78° C | 90% | 1016.8 hPa | - | - | - | - |
| 1788140253 | 12.78° C | 89% | 1016.7 hPa | - | - | - | - |
* Rain since midnight (hover to see other rain measurements)
** Current wind speed in m/s (hover to see current wind gust speed)